• In Netherlands
  • List of Countries
  • For 7 days
  • Water Temperature
  • Satellite Maps
  • Weather Map
  • Weather Widgets
  • user-avatar
    Login

    Hourly Weather Innsbruck

    Today, 21 August, Monday

    Time Temperature Precipitation Wind Pressure Humidity
    00:00 +3°C° 0 mm 1 mps 599 mmHg 92%
    01:00 +3°C° 0 mm 1 mps 599 mmHg 94%
    02:00 +3°C° 0 mm 1 mps 599 mmHg 94%
    03:00 +3°C° 0 mm 1 mps 599 mmHg 94%
    04:00 +3°C° 0 mm 1 mps 599 mmHg 94%
    05:00 +3°C° 0 mm 1 mps 599 mmHg 89%
    06:00 +4°C° 0 mm 1 mps 600 mmHg 85%
    07:00 +5°C° 0 mm 1 mps 600 mmHg 80%
    08:00 +7°C° 0 mm 1 mps 601 mmHg 69%
    09:00 +8°C° 0 mm 2 mps 602 mmHg 58%
    10:00 +12°C° 0 mm 2 mps 603 mmHg 46%
    11:00 +12°C° 0 mm 2 mps 603 mmHg 45%
    12:00 +13°C° 0 mm 2 mps 603 mmHg 45%
    13:00 +13°C° 0 mm 2 mps 603 mmHg 44%
    14:00 +13°C° 0 mm 2 mps 603 mmHg 46%
    15:00 +13°C° 0 mm 2 mps 602 mmHg 48%
    16:00 +12°C° 0 mm 2 mps 602 mmHg 50%
    17:00 +10°C° 0 mm 2 mps 601 mmHg 60%
    18:00 +8°C° 0 mm 2 mps 601 mmHg 69%
    19:00 +7°C° 0 mm 1 mps 600 mmHg 79%
    20:00 +6°C° 0 mm 1 mps 600 mmHg 83%
    21:00 +5°C° 0 mm 1 mps 600 mmHg 87%
    22:00 +4°C° 0 mm 1 mps 599 mmHg 91%
    23:00 +4°C° 0 mm 1 mps 599 mmHg 91%

    Tomorrow, 22 August, Tuesday

    Time Temperature Precipitation Wind Pressure Humidity
    00:00 +3°C° 0 mm 1 mps 599 mmHg 90%
    01:00 +3°C° 0 mm 1 mps 599 mmHg 90%
    02:00 +3°C° 0 mm 1 mps 599 mmHg 89%
    03:00 +3°C° 0 mm 1 mps 599 mmHg 88%
    04:00 +3°C° 0 mm 1 mps 598 mmHg 87%
    05:00 +4°C° 0 mm 1 mps 599 mmHg 83%
    06:00 +6°C° 0 mm 1 mps 600 mmHg 78%
    07:00 +7°C° 0 mm 1 mps 601 mmHg 73%
    08:00 +10°C° 0 mm 1 mps 601 mmHg 66%
    09:00 +12°C° 0 mm 1 mps 602 mmHg 59%
    10:00 +14°C° 0 mm 1 mps 603 mmHg 51%
    11:00 +15°C° 0 mm 1 mps 603 mmHg 49%
    12:00 +16°C° 0 mm 1 mps 603 mmHg 47%
    13:00 +17°C° 0 mm 2 mps 603 mmHg 45%
    14:00 +17°C° 0 mm 2 mps 603 mmHg 48%
    15:00 +16°C° 0 mm 2 mps 602 mmHg 50%
    16:00 +16°C° 0 mm 3 mps 602 mmHg 53%
    17:00 +14°C° 0 mm 2 mps 601 mmHg 64%
    18:00 +12°C° 0 mm 2 mps 600 mmHg 75%
    19:00 +10°C° 0 mm 1 mps 599 mmHg 86%
    20:00 +9°C° 0 mm 1 mps 599 mmHg 89%
    21:00 +8°C° 0 mm 1 mps 599 mmHg 92%
    22:00 +7°C° 0 mm 1 mps 599 mmHg 95%
    23:00 +6°C° 0 mm 1 mps 598 mmHg 95%

    Day after tomorrow, 23 August, Wednesday

    Time Temperature Precipitation Wind Pressure Humidity
    00:00 +6°C° 0 mm 1 mps 598 mmHg 95%
    01:00 +6°C° 0 mm 1 mps 598 mmHg 95%
    02:00 +6°C° 0 mm 1 mps 598 mmHg 93%
    03:00 +5°C° 0 mm 1 mps 598 mmHg 91%
    04:00 +5°C° 0 mm 1 mps 597 mmHg 89%
    05:00 +7°C° 0 mm 1 mps 598 mmHg 84%
    06:00 +8°C° 0 mm 1 mps 599 mmHg 79%
    07:00 +10°C° 0 mm 1 mps 600 mmHg 74%
    08:00 +12°C° 0 mm 1 mps 601 mmHg 65%
    09:00 +15°C° 0 mm 1 mps 602 mmHg 55%
    10:00 +18°C° 0 mm 1 mps 603 mmHg 45%
    11:00 +19°C° 0.1 mm 1 mps 603 mmHg 43%
    12:00 +20°C° 0.1 mm 1 mps 603 mmHg 40%
    13:00 +20°C° 0.1 mm 2 mps 603 mmHg 38%
    14:00 +19°C° 0 mm 2 mps 603 mmHg 39%
    15:00 +19°C° 0 mm 2 mps 603 mmHg 41%
    16:00 +19°C° 0 mm 2 mps 603 mmHg 42%
    17:00 +16°C° 0.2 mm 2 mps 602 mmHg 54%
    18:00 +14°C° 0.2 mm 1 mps 601 mmHg 67%
    19:00 +11°C° 0.2 mm 1 mps 600 mmHg 79%
    20:00 +10°C° 0.1 mm 1 mps 600 mmHg 80%
    21:00 +9°C° 0.1 mm 1 mps 600 mmHg 82%
    22:00 +8°C° 0.1 mm 1 mps 599 mmHg 84%
    23:00 +8°C° 0 mm 1 mps 599 mmHg 81%

    24 August, Thursday

    Time Temperature Precipitation Wind Pressure Humidity
    00:00 +8°C° 0 mm 1 mps 599 mmHg 79%
    01:00 +7°C° 0 mm 1 mps 599 mmHg 77%
    02:00 +7°C° 0 mm 1 mps 599 mmHg 75%
    03:00 +7°C° 0 mm 1 mps 599 mmHg 72%
    04:00 +7°C° 0 mm 1 mps 599 mmHg 70%
    05:00 +9°C° 0 mm 1 mps 599 mmHg 67%
    06:00 +10°C° 0 mm 1 mps 600 mmHg 64%
    07:00 +12°C° 0 mm 1 mps 601 mmHg 60%
    08:00 +14°C° 0 mm 1 mps 602 mmHg 54%
    09:00 +16°C° 0 mm 0 mps 603 mmHg 47%
    10:00 +18°C° 0 mm 0 mps 604 mmHg 40%
    11:00 +20°C° 0 mm 1 mps 604 mmHg 40%
    12:00 +20°C° 0 mm 1 mps 604 mmHg 40%
    13:00 +20°C° 0 mm 1 mps 604 mmHg 40%
    14:00 +20°C° 0.2 mm 1 mps 604 mmHg 45%
    15:00 +19°C° 0.2 mm 1 mps 603 mmHg 51%
    16:00 +18°C° 0.2 mm 1 mps 603 mmHg 56%
    17:00 +15°C° 0.3 mm 1 mps 602 mmHg 64%
    18:00 +14°C° 0.3 mm 1 mps 601 mmHg 72%
    19:00 +12°C° 0.3 mm 1 mps 601 mmHg 79%
    20:00 +11°C° 0 mm 1 mps 601 mmHg 80%
    21:00 +11°C° 0 mm 1 mps 600 mmHg 81%
    22:00 +9°C° 0 mm 2 mps 600 mmHg 82%
    23:00 +8°C° 0 mm 2 mps 600 mmHg 82%

    25 August, Friday

    Time Temperature Precipitation Wind Pressure Humidity
    00:00 +8°C° 0 mm 2 mps 600 mmHg 81%
    01:00 +8°C° 0 mm 2 mps 600 mmHg 81%
    02:00 +8°C° 0 mm 2 mps 600 mmHg 81%
    03:00 +7°C° 0 mm 2 mps 599 mmHg 80%
    04:00 +7°C° 0 mm 2 mps 599 mmHg 80%
    05:00 +8°C° 0 mm 2 mps 600 mmHg 77%
    06:00 +9°C° 0 mm 2 mps 600 mmHg 75%
    07:00 +10°C° 0 mm 2 mps 601 mmHg 72%
    08:00 +14°C° 0 mm 2 mps 602 mmHg 63%
    09:00 +17°C° 0 mm 2 mps 603 mmHg 54%
    10:00 +20°C° 0 mm 1 mps 604 mmHg 44%
    11:00 +20°C° 0 mm 2 mps 604 mmHg 42%
    12:00 +21°C° 0 mm 2 mps 604 mmHg 40%
    13:00 +23°C° 0 mm 2 mps 604 mmHg 38%
    14:00 +21°C° 0.2 mm 2 mps 604 mmHg 42%
    15:00 +20°C° 0.2 mm 2 mps 603 mmHg 47%
    16:00 +19°C° 0.2 mm 2 mps 603 mmHg 51%
    17:00 +17°C° 1.6 mm 2 mps 602 mmHg 64%
    18:00 +15°C° 1.6 mm 1 mps 602 mmHg 77%
    19:00 +12°C° 1.6 mm 1 mps 601 mmHg 89%
    20:00 +12°C° 0.4 mm 1 mps 601 mmHg 90%
    21:00 +11°C° 0.4 mm 1 mps 601 mmHg 91%
    22:00 +11°C° 0.4 mm 1 mps 601 mmHg 92%
    23:00 +10°C° 0.1 mm 2 mps 601 mmHg 91%

    26 August, Saturday

    Time Temperature Precipitation Wind Pressure Humidity
    00:00 +9°C° 0.1 mm 2 mps 600 mmHg 91%
    01:00 +9°C° 0.1 mm 2 mps 600 mmHg 90%
    02:00 +9°C° 0.1 mm 2 mps 600 mmHg 89%
    03:00 +9°C° 0.1 mm 2 mps 600 mmHg 88%
    04:00 +9°C° 0.1 mm 2 mps 600 mmHg 86%
    05:00 +10°C° 0 mm 2 mps 600 mmHg 84%
    06:00 +10°C° 0 mm 2 mps 600 mmHg 81%
    07:00 +12°C° 0 mm 2 mps 601 mmHg 79%
    08:00 +15°C° 0 mm 2 mps 602 mmHg 68%
    09:00 +17°C° 0 mm 2 mps 603 mmHg 57%
    10:00 +21°C° 0 mm 1 mps 604 mmHg 46%
    11:00 +21°C° 0 mm 2 mps 604 mmHg 43%
    12:00 +21°C° 0 mm 2 mps 604 mmHg 41%
    13:00 +23°C° 0 mm 2 mps 604 mmHg 39%
    14:00 +23°C° 0.1 mm 2 mps 604 mmHg 41%
    15:00 +21°C° 0.1 mm 2 mps 603 mmHg 43%
    16:00 +21°C° 0.1 mm 2 mps 603 mmHg 45%
    17:00 +19°C° 0.4 mm 2 mps 602 mmHg 57%
    18:00 +16°C° 0.4 mm 2 mps 601 mmHg 68%
    19:00 +14°C° 0.4 mm 1 mps 600 mmHg 80%
    20:00 +13°C° 0.3 mm 2 mps 600 mmHg 81%
    21:00 +12°C° 0.3 mm 2 mps 600 mmHg 83%
    22:00 +10°C° 0.3 mm 2 mps 600 mmHg 85%
    23:00 +10°C° 0.5 mm 2 mps 600 mmHg 85%
    Show more